DW3886 Weather Reports


Display with metric or nautical units.
time (UTC)temp
F
wind
direction
speed
MPH
gust
MPH
rain 1hr
in
rain 24hr
in
rain mn
in
humidity
%
barometer
mb
20260507083017 43 0.0 0.0 0.00 0.00 0.00 60 1014.3
20260507082017 43 0.0 0.0 0.00 0.00 0.00 60 1014.4
20260507081057 43 0.0 4.0 0.00 0.00 0.00 60 1014.5
20260507080017 43 180 1.0 4.0 0.00 0.00 0.00 60 1014.6
20260507075018 43 0.0 0.0 0.00 0.00 0.00 60 1014.6
20260507074037 43 0.0 2.0 0.00 0.00 0.00 60 1014.6
20260507073017 42 0.0 3.0 0.00 0.00 0.00 60 1014.8
20260507072017 42 203 1.0 4.0 0.00 0.00 0.00 60 1014.9
20260507071017 42 180 1.0 2.0 0.00 0.00 0.00 61 1014.9
20260507070037 42 180 1.0 3.0 0.00 0.00 0.00 62 1015.0
20260507065017 41 0.0 0.0 0.00 0.00 0.00 63 1015.0
20260507064017 41 0.0 3.0 0.00 0.00 0.00 64 1015.1
20260507063017 41 0.0 2.0 0.00 0.00 0.00 64 1015.2
20260507062017 41 0.0 0.0 0.00 0.00 0.00 65 1015.3
20260507061017 41 0.0 0.0 0.00 0.00 0.00 63 1015.2
20260507060017 42 0.0 2.0 0.00 0.00 0.00 63 1015.3
20260507055017 42 0.0 0.0 0.00 0.00 0.00 63 1015.4
20260507054037 42 0.0 1.0 0.00 0.00 0.00 61 1015.5
20260507053017 42 203 1.0 2.0 0.00 0.00 0.00 62 1015.5
20260507052017 42 248 1.0 2.0 0.00 0.00 0.00 63 1015.5
20260507051058 42 0.0 2.0 0.00 0.00 0.00 64 1015.5
20260507050017 42 0.0 0.0 0.00 0.00 0.00 63 1015.5
20260507045016 42 0.0 0.0 0.00 0.00 0.00 62 1015.6
20260507044016 42 0.0 0.0 0.00 0.00 0.00 61 1015.6
20260507043016 43 0.0 0.0 0.00 0.00 0.00 60 1015.7
20260507042016 43 0.0 0.0 0.00 0.00 0.00 59 1015.9
20260507041016 43 0.0 0.0 0.00 0.00 0.00 59 1015.9
20260507040016 43 0.0 0.0 0.00 0.00 0.00 59 1016.0
20260507035016 43 0.0 0.0 0.00 0.00 0.00 62 1016.1
20260507034016 43 0.0 0.0 0.00 0.00 0.00 65 1016.1
20260507033016 42 0.0 1.0 0.00 0.00 0.00 66 1016.1
20260507032016 42 0.0 1.0 0.00 0.00 0.00 62 1016.1
20260507031016 42 0.0 0.0 0.00 0.00 0.00 61 1016.0
20260507030021 43 0.0 0.0 0.00 0.00 0.00 61 1016.2
20260507025016 43 0.0 0.0 0.00 0.00 0.00 61 1016.2
20260507024016 44 0.0 0.0 0.00 0.00 0.00 60 1016.2
20260507023016 44 0.0 0.0 0.00 0.00 0.00 57 1016.2
20260507022016 45 0.0 0.0 0.00 0.00 0.00 57 1016.2
20260507021016 46 0.0 0.0 0.00 0.00 0.00 53 1016.0
20260507020016 47 0.0 0.0 0.00 0.00 0.00 51 1016.0
20260507015016 48 0.0 0.0 0.00 0.00 0.00 47 1016.0
20260507014056 49 0.0 0.0 0.00 0.00 0.00 42 1016.0
20260507013016 50 0.0 1.0 0.00 0.00 0.00 40 1016.0
20260507012016 51 0.0 2.0 0.00 0.00 0.00 40 1016.0
20260507011016 52 293 1.0 3.0 0.00 0.00 0.00 41 1015.9
20260507010016 53 315 1.0 6.0 0.00 0.00 0.00 39 1015.9
20260507005016 54 315 1.0 3.0 0.00 0.00 0.00 38 1015.9
20260507004016 55 270 1.0 4.0 0.00 0.00 0.00 37 1015.9
20260507003056 56 293 1.0 2.0 0.00 0.00 0.00 36 1016.1
20260507002016 56 315 1.0 3.0 0.00 0.00 0.00 37 1016.2
20260507001016 56 293 2.0 4.0 0.00 0.00 0.00 35 1016.3
20260507000036 56 293 3.0 6.0 0.00 0.00 0.00 35 1016.3
20260506235016 56 293 2.0 6.0 0.00 0.00 0.00 38 1016.2
20260506234016 56 293 3.0 7.0 0.00 0.00 0.00 36 1016.3
20260506233016 55 248 1.0 5.0 0.00 0.00 0.00 39 1016.4
20260506232016 55 293 3.0 7.0 0.00 0.00 0.00 35 1016.5
20260506231016 56 293 2.0 5.0 0.00 0.00 0.00 35 1016.6
20260506230016 56 270 3.0 13.0 0.00 0.00 0.00 35 1016.7
20260506225016 56 293 2.0 9.0 0.00 0.00 0.00 41 1016.8
20260506224036 55 270 3.0 9.0 0.00 0.00 0.00 36 1016.6
20260506223036 55 248 3.0 7.0 0.00 0.00 0.00 36 1016.6
20260506222036 55 270 4.0 7.0 0.00 0.00 0.00 36 1016.6
20260506221036 55 293 3.0 11.0 0.00 0.00 0.00 39 1016.7
20260506220015 56 293 4.0 10.0 0.00 0.00 0.00 37 1016.9
20260506215016 56 293 4.0 8.0 0.00 0.00 0.00 40 1016.9
20260506214016 55 270 3.0 11.0 0.00 0.00 0.00 40 1016.8
20260506213016 56 270 3.0 6.0 0.00 0.00 0.00 38 1016.8
20260506212016 56 293 3.0 8.0 0.00 0.00 0.00 39 1016.9
20260506211016 55 248 5.0 15.0 0.00 0.00 0.00 38 1017.0
20260506210016 57 270 3.0 7.0 0.00 0.00 0.00 40 1017.1
20260506205016 57 270 4.0 11.0 0.00 0.00 0.00 38 1017.2
20260506204016 58 270 4.0 8.0 0.00 0.00 0.00 40 1017.3
20260506203016 56 293 4.0 14.0 0.00 0.00 0.00 43 1017.1
20260506202036 55 293 3.0 7.0 0.00 0.00 0.00 43 1017.2
20260506201016 56 293 3.0 9.0 0.00 0.00 0.00 39 1017.3
20260506200016 55 293 3.0 11.0 0.00 0.00 0.00 40 1017.4
20260506195016 55 293 4.0 12.0 0.00 0.00 0.00 39 1017.4
20260506194036 55 293 4.0 10.0 0.00 0.00 0.00 42 1017.4
20260506193016 54 293 3.0 9.0 0.00 0.00 0.00 43 1017.5
20260506192015 54 270 3.0 9.0 0.00 0.00 0.00 43 1017.6
20260506191015 54 293 3.0 9.0 0.00 0.00 0.00 41 1017.6
20260506190016 54 293 4.0 11.0 0.00 0.00 0.00 42 1017.6
20260506185016 54 293 3.0 10.0 0.00 0.00 0.00 43 1017.7
20260506184016 53 270 3.0 10.0 0.00 0.00 0.00 40 1017.9
20260506183015 53 248 4.0 12.0 0.00 0.00 0.00 45 1017.8
20260506182016 53 270 4.0 10.0 0.00 0.00 0.00 41 1018.0
20260506181036 53 293 3.0 7.0 0.00 0.00 0.00 42 1018.0
20260506180036 53 270 2.0 7.0 0.00 0.00 0.00 47 1018.3
20260506175016 52 315 2.0 6.0 0.00 0.00 0.00 45 1018.3
20260506174016 52 315 3.0 8.0 0.00 0.00 0.00 47 1018.3
20260506173016 51 270 2.0 7.0 0.00 0.00 0.00 47 1018.5
20260506172015 51 270 3.0 11.0 0.00 0.00 0.00 43 1018.6
20260506171016 52 248 4.0 9.0 0.00 0.00 0.00 45 1018.6
20260506170016 51 293 3.0 8.0 0.00 0.00 0.00 48 1018.6
20260506165015 51 293 3.0 8.0 0.00 0.00 0.00 46 1018.5
20260506164016 51 270 3.0 6.0 0.00 0.00 0.00 45 1018.5
20260506163015 51 293 3.0 7.0 0.00 0.00 0.00 45 1018.6
20260506162015 51 270 4.0 11.0 0.00 0.00 0.00 44 1018.5
20260506161016 51 293 3.0 8.0 0.00 0.00 0.00 46 1018.4
20260506160015 51 293 3.0 7.0 0.00 0.00 0.00 48 1018.5
20260506155036 51 293 3.0 9.0 0.00 0.00 0.00 48 1018.6
20260506154016 52 293 2.0 5.0 0.00 0.00 0.00 46 1018.6
20260506153015 52 270 4.0 10.0 0.00 0.00 0.00 46 1018.6
20260506152015 51 293 2.0 5.0 0.00 0.00 0.00 52 1018.5
20260506151016 50 315 2.0 5.0 0.00 0.00 0.00 52 1018.6
20260506150015 50 315 3.0 8.0 0.00 0.00 0.00 49 1018.5
20260506145016 50 293 3.0 8.0 0.00 0.00 0.00 50 1018.4
20260506144015 49 293 2.0 4.0 0.00 0.00 0.00 55 1018.5
20260506143015 48 270 3.0 7.0 0.00 0.00 0.00 52 1018.5
20260506142016 49 248 3.0 6.0 0.00 0.00 0.00 50 1018.5
20260506141016 49 315 1.0 4.0 0.00 0.00 0.00 53 1018.4
20260506140036 48 270 2.0 5.0 0.00 0.00 0.00 55 1018.4
20260506135015 48 293 1.0 4.0 0.00 0.00 0.00 55 1018.2
20260506134036 47 315 2.0 5.0 0.00 0.00 0.00 59 1018.1
20260506133015 46 293 1.0 4.0 0.00 0.00 0.00 59 1018.0
20260506132016 46 338 2.0 5.0 0.00 0.00 0.00 57 1017.9
20260506131015 45 338 1.0 4.0 0.00 0.00 0.00 63 1017.9
20260506130015 44 293 2.0 6.0 0.00 0.00 0.00 61 1017.7
20260506125015 42 315 1.0 4.0 0.00 0.00 0.00 65 1017.6
20260506124035 41 315 1.0 3.0 0.00 0.00 0.00 67 1017.4
20260506123015 40 315 1.0 3.0 0.00 0.00 0.00 68 1017.3
20260506122016 39 0.0 2.0 0.00 0.00 0.00 70 1017.0
20260506121016 38 0.0 0.0 0.00 0.00 0.00 72 1017.0
20260506120036 38 0.0 0.0 0.00 0.00 0.00 72 1017.0
20260506115036 38 0.0 0.0 0.00 0.00 0.00 71 1016.8
20260506114015 38 0.0 0.0 0.00 0.00 0.00 70 1016.7
20260506113015 38 0.0 2.0 0.00 0.00 0.00 69 1016.5
20260506112015 38 0.0 3.0 0.00 0.00 0.00 68 1016.4
20260506111015 39 0.0 1.0 0.00 0.00 0.00 67 1016.3
20260506110015 39 0.0 1.0 0.00 0.00 0.00 67 1016.2
20260506105015 40 0.0 1.0 0.00 0.00 0.00 66 1016.2
20260506104015 40 315 1.0 3.0 0.00 0.00 0.00 65 1016.0
20260506103015 40 315 1.0 2.0 0.00 0.00 0.00 65 1015.8
20260506102015 40 315 1.0 3.0 0.00 0.00 0.00 65 1015.7
20260506101016 40 315 1.0 3.0 0.00 0.00 0.00 64 1015.6
20260506100015 41 0 1.0 4.0 0.00 0.00 0.00 64 1015.7
20260506095015 41 338 1.0 4.0 0.00 0.00 0.00 64 1015.7
20260506094035 41 315 1.0 3.0 0.00 0.00 0.00 63 1015.6
20260506093015 41 293 1.0 3.0 0.00 0.00 0.00 63 1015.7
20260506092055 41 338 1.0 5.0 0.00 0.00 0.00 63 1015.7
20260506091015 41 0 1.0 4.0 0.00 0.00 0.00 63 1015.5
20260506090015 41 293 1.0 2.0 0.00 0.00 0.00 61 1015.6
20260506085017 41 293 1.0 4.0 0.00 0.00 0.00 61 1015.5
20260506084017 41 315 1.0 4.0 0.00 0.00 0.00 62 1015.3